Other Public Products
Issued by NWS Charleston, SC

Current Version | Previous Version | Text Only | Print | Product List | Glossary Off
Versions: 1 2 3 4 5 6 7 8 9 10 11 12 13 14 15 16 17 18 19 20 21 22 23 24 25 26 27 28 29 30 31 32 33 34 35 36 37 38 39 40 41 42 43 44 45 46 47 48 49 50

060
FPUS82 KCHS 210627
OPUCHS

TEST...KCHS/KSAV Gateway Observations...TEST
National Weather Service Charleston SC
100 AM EST WED FEB 21 2018

NOTE: "fair" indicates few or no clouds below 12,000 feet with no
significant weather and/or obstructions to visibility.

SCZ050-WAZ558-NCZ071-TXZ119-213-PAZ071-DCZ001-FLZ074-172-MI076-
NYZ176-178-MAZ016-IL014-TNZ027-NJZ106-GAZ044-MD014-210700-

...Gateway Observations for Charleston International...

CITY           SKY/WX    TMP DP  RH WIND       PRES   REMARKS
Chas Airport   FAIR      66  65  96 SE7       30.42F
6HR MIN TEMP:  65; 6HR MAX TEMP:  70;

Seattle        PTCLDY    31  20  63 NE8       30.25R WCI  23
6HR MIN TEMP:  30; 6HR MAX TEMP:  35; 6HR PCP: TRACE;

Charlotte      MOCLDY    61  60  97 SE5       30.42S
6HR MIN TEMP:  61; 6HR MAX TEMP:  68;

Dallas DFW     CLOUDY    40  36  86 N24       30.14S WCI  29
6HR MIN TEMP:  40; 6HR MAX TEMP:  46; 6HR PCP:  0.74;

Dallas Love    LGT RAIN  39  36  89 N15       30.17R WCI  31
6HR MIN TEMP:  39; 6HR MAX TEMP:  47; 6HR PCP:  1.48;

Philladelphia  FAIR      58  57  97 S7        30.34S
6HR MIN TEMP:  56; 6HR MAX TEMP:  66;

Wash National  MOCLDY    59  56  89 S10       30.34S
6HR MIN TEMP:  59; 6HR MAX TEMP:  72;

Baltimore      FAIR      55  55 100 SE3       30.32S
6HR MIN TEMP:  54; 6HR MAX TEMP:  64;

Miami          FAIR      76  71  85 E17       30.32F
6HR MIN TEMP:  76; 6HR MAX TEMP:  78;

Detroit        LGT RAIN  53  52  96 SW3       30.05F
6HR MIN TEMP:  53; 6HR MAX TEMP:  65; 6HR PCP: TRACE;

Newark         MOCLDY    59  56  89 S6        30.31F
6HR MIN TEMP:  59; 6HR MAX TEMP:  66;

Laguardia      CLOUDY    52  49  89 S5        30.32F FOG
6HR MIN TEMP:  53; 6HR MAX TEMP:  61;

J F K          FOG       49  49 100 S12       30.34F VSB 1/8
6HR MIN TEMP:  46; 6HR MAX TEMP:  50;

Boston Logan   FAIR      41  40  96 E3        30.28S
6HR MIN TEMP:  41; 6HR MAX TEMP:  48;

Ft. Lauderdale FAIR      76  72  87 E20       30.32S
6HR MIN TEMP:  76; 6HR MAX TEMP:  77;

Chicago O`Hare LGT RAIN  34  30  85 NW10      30.18R WCI  26
6HR MIN TEMP:  34; 6HR MAX TEMP:  41; 6HR PCP:  0.24;

Chicago Midway RAIN      35  33  92 NW12      30.18R FOG     WCI  27
6HR MIN TEMP:  34; 6HR MAX TEMP:  46; 6HR PCP:  0.35;

Houston Bush   CLOUDY    74  70  87 S8        30.08R
6HR MIN TEMP:  74; 6HR MAX TEMP:  77;

Houston Hobby  CLOUDY    73  72  96 S8        30.07R
6HR MIN TEMP:  73; 6HR MAX TEMP:  75;

Nashville      FAIR      71  61  70 S18G26    30.20R
6HR MIN TEMP:  71; 6HR MAX TEMP:  73;

Atlanta        MOCLDY    68  63  84 SE7       30.36S
6HR MIN TEMP:  68; 6HR MAX TEMP:  72;


$$

GAZ044-118-TXZ119-213-NCZ071-DCZ001-MDZ014-506-PAZ021-071-NJZ106-
NYZ176-178-MAZ106-OHZ011-021-055-MIZ076-KYZ091-ILZ014-INZ047-
MNZ060-ONZ431-210700-

...Gateway Observations for Savannah International...

CITY           SKY/WX    TMP DP  RH WIND       PRES   REMARKS
Savannah Arpt  FAIR      69  67  93 SE9       30.40S
6HR MIN TEMP:  68; 6HR MAX TEMP:  71;

Atlanta        MOCLDY    68  63  84 SE7       30.36S
6HR MIN TEMP:  68; 6HR MAX TEMP:  72;

Charlotte      MOCLDY    61  60  97 SE5       30.42S
6HR MIN TEMP:  61; 6HR MAX TEMP:  68;

Dallas DFW     CLOUDY    40  36  86 N24       30.14S WCI  29
6HR MIN TEMP:  40; 6HR MAX TEMP:  46; 6HR PCP:  0.74;

Houston Bush   CLOUDY    74  70  87 S8        30.08R
6HR MIN TEMP:  74; 6HR MAX TEMP:  77;

Wash National  MOCLDY    59  56  89 S10       30.34S
6HR MIN TEMP:  59; 6HR MAX TEMP:  72;

Wash Dulles    FAIR      62  58  86 S14       30.32S
6HR MIN TEMP:  62; 6HR MAX TEMP:  70;

Baltimore      FAIR      55  55 100 SE3       30.32S
6HR MIN TEMP:  54; 6HR MAX TEMP:  64;

Philadelphia   FAIR      58  57  97 S7        30.34S
6HR MIN TEMP:  56; 6HR MAX TEMP:  66;

Newark         MOCLDY    59  56  89 S6        30.31F
6HR MIN TEMP:  59; 6HR MAX TEMP:  66;

Laguardia      CLOUDY    52  49  89 S5        30.32F FOG
6HR MIN TEMP:  53; 6HR MAX TEMP:  61;

J F K          FOG       49  49 100 S12       30.34F VSB 1/8
6HR MIN TEMP:  46; 6HR MAX TEMP:  50;

Boston         FAIR      41  40  96 E3        30.28S
6HR MIN TEMP:  41; 6HR MAX TEMP:  48;

Pittsburg      MOCLDY    67  50  54 S7        30.19F
6HR MIN TEMP:  64; 6HR MAX TEMP:  72;

Akron          FAIR      66  51  58 S17       30.14S
6HR MIN TEMP:  65; 6HR MAX TEMP:  68;

Cleveland      MOCLDY    69  54  58 S14G22    30.09F
6HR MIN TEMP:  68; 6HR MAX TEMP:  72;

Cincinnati     FAIR      68  59  73 S17G28    30.11F
6HR MIN TEMP:  67; 6HR MAX TEMP:  73;

Columbus       FAIR      64  54  69 S13       30.14S
Detroit        LGT RAIN  53  52  96 SW3       30.05F
6HR MIN TEMP:  53; 6HR MAX TEMP:  65; 6HR PCP: TRACE;

Chicago O`Hare LGT RAIN  34  30  85 NW10      30.18R WCI  26
6HR MIN TEMP:  34; 6HR MAX TEMP:  41; 6HR PCP:  0.24;

Minneapolis    FAIR       8   2  76 NW10      30.37R WCI  -6
6HR MIN TEMP:   8; 6HR MAX TEMP:  18;

Indianapolis   MOCLDY    68  58  70 S15       30.01F
6HR MIN TEMP:  67; 6HR MAX TEMP:  72; 6HR PCP: TRACE;

Toronto Canada NOT AVBL

$$




USA.gov is the U.S. government's official web portal to all federal, state and local government web resources and services.